This demonstration page uses our WeatherBlox Daily Observations layout. Learn more.

38.80484, -77.04692

Hourly Observations for April 25, 2019

Temp ( °F °C ) Dew Point ( °F °C ) Humidity (%) Winds ( mph kmh ) Pressure ( in mb ) Visibility ( mi km ) Precip ( " mm )
12:52 am 00:52 Cloudy 65 18.3 50 10 59 59 NNE 3 6 29.9 1013 10 16.0934 0 0
1:52 am 01:52 Mostly Cloudy 66 18.9 45 7.2 47 47 Calm 29.9 1012 10 16.0934 0 0
2:52 am 02:52 Cloudy 63 17.2 48 8.9 58 58 N 6 9 29.89 1012 10 16.0934 0 0
3:52 am 03:52 Mostly Cloudy 63 17.2 47 8.3 56 56 NE 5 7 29.89 1012 10 16.0934 0 0
4:52 am 04:52 Cloudy 63 17.2 45 7.2 52 52 ENE 3 6 29.9 1012 10 16.0934 0 0
5:52 am 05:52 Mostly Cloudy 62 16.7 44 6.7 52 52 ENE 6 9 29.91 1013 10 16.0934 0 0
6:52 am 06:52 Cloudy 62 16.7 43 6.1 50 50 NNE 6 9 29.92 1013 10 16.0934 0 0
7:52 am 07:52 Mostly Cloudy 64 17.8 43 6.1 46 46 NNE 5 7 29.94 1014 10 16.0934 0 0
8:52 am 08:52 Cloudy 64 17.8 44 6.7 48 48 NNE 8 13 29.93 1014 10 16.0934 0 0
9:52 am 09:52 Cloudy 64 17.8 44 6.7 48 48 ENE 8 13 29.92 1013 10 16.0934 0 0
10:52 am 10:52 Cloudy 66 18.9 45 7.2 47 47 NE 6 9 29.93 1014 10 16.0934 0 0
11:52 am 11:52 Cloudy 68 20 48 8.9 49 49 ENE 6 9 29.91 1013 10 16.0934 0 0
12:52 pm 12:52 Cloudy 71 21.7 47 8.3 42 42 SE 7 11 29.91 1013 10 16.0934 0 0
1:52 pm 13:52 Cloudy 72 22.2 44 6.7 37 37 SE 5 7 29.89 1012 10 16.0934 0 0
2:52 pm 14:52 Cloudy 73 22.8 46 7.8 38 38 SE 7 11 29.88 1012 10 16.0934 0 0
3:52 pm 15:52 Mostly Cloudy 75 23.9 47 8.3 37 37 SE 7 11 29.85 1011 10 16.0934 0 0
4:52 pm 16:52 Mostly Cloudy 76 24.4 48 8.9 37 37 E 8 13 29.85 1011 10 16.0934 0 0
5:52 pm 17:52 Mostly Cloudy 74 23.3 53 11.7 48 48 ESE 8 13 29.85 1011 10 16.0934 0 0
6:52 pm 18:52 Mostly Cloudy 72 22.2 53 11.7 52 52 ESE 10 17 29.84 1011 10 16.0934 0 0
7:52 pm 19:52 Cloudy 70 21.1 52 11.1 53 53 ESE 12 19 29.86 1011 10 16.0934 0 0
8:52 pm 20:52 Cloudy 68 20 53 11.7 59 59 ESE 7 11 29.87 1012 10 16.0934 0 0
9:52 pm 21:52 Cloudy 67 19.4 52 11.1 59 59 E 7 11 29.88 1012 10 16.0934 0 0
10:52 pm 22:52 Cloudy with Light Rain 66 18.9 51 10.6 59 59 E 6 9 29.88 1012 10 16.0934 0 0.0254
11:52 pm 23:52 Cloudy with Light Rain 64 17.8 49 9.4 58 58 E 7 11 29.84 1011 10 16.0934 0 0.0254

Powered by AerisWeather